792  
ASUS43 KIND 200110  
RWRIN  
 
WEATHER ROUNDUP FOR INDIANA  
NATIONAL WEATHER SERVICE INDIANAPOLIS IN  
900 PM EDT FRI AUG 19 2022  
 
NOTE: "FAIR" INDICATES FEW OR NO CLOUDS BELOW 12,000 FEET WITH NO  
SIGNIFICANT WEATHER AND/OR S TO VISIBILITY
.  
 
* - STATION DOES NOT REPORT WEATHER SUCH AS PRECIPITATION OR FOG.
 
 
+ - STATION NOT QUALITY CONTROLLED BY THE NATIONAL WEATHER SERVICE.  
USE DATA WITH CAUTION...ESPECIALLY DEWPOINT AND RELATIVE  
HUMIDITY OBSERVATIONS.  
 
INZ001>003-010>013-019-020-200200-  
NORTHWEST INDIANA  
 
CITY SKY/WX TMP DP RH WIND PRES REMARKS
 
GARY /AIRPORT/ PTCLDY 77 61 57 CALM 29.94S  
KNOX *+ CLEAR 70 68 94 CALM 29.97R  
LA PORTE + PTCLDY 69 66 90 CALM 29.97R  
MICHIGAN CITY+ PTCLDY 72 59 64 S3 29.96R  
MONTICELLO + CLEAR 74 58 58 CALM 29.97R  
RENSSELAER + PTCLDY 68 64 88 CALM 29.97S  
VALPARAISO PTCLDY 75 59 57 S3 29.96R  
 

 
 
LMZ046-743>745-200200-  
SOUTHERN LAKE MICHIGAN  
 
STATION/POSITION TIME TEMP WIND PRES
 
AIR DIR/SP/G  
(UTC) (F) (DEG/KT/KT) (MB)  
BURNS HARBOR 0030 79 CALM / 1 1014.2S  
MICHIGAN CITY 0040 80 1012.5R  
5NW MICH CITY 0040 76 N/A  
 

 
 
INZ004-005-014>016-021>024-200200-  
NORTH CENTRAL INDIANA  
 
CITY SKY/WX TMP DP RH WIND PRES REMARKS
 
ELKHART CLEAR 77 59 53 CALM 29.98R  
GOSHEN CLEAR 70 62 76 SE3 29.97S  
LOGANSPORT + CLEAR 68 61 77 CALM 29.98R  
PERU/GRISSOM CLEAR 73 63 71 SE5 29.97R  
ROCHESTER + CLEAR 77 61 57 CALM 29.98R  
SOUTH BEND CLEAR 78 59 51 S5 29.97R  
WARSAW + CLEAR 73 57 56 CALM 29.99R  
 

 
 
INZ006>009-017-018-025>027-200200-  
NORTHEAST INDIANA  
 
CITY SKY/WX TMP DP RH WIND PRES REMARKS
 
ANGOLA *+ CLOUDY 73 66 78 SE3 29.99R  
AUBURN + CLEAR 68 63 83 CALM 30.00S  
FORT WAYNE PTCLDY 72 60 66 S3 30.00R  
HUNTINGTON + MOCLDY N/A N/A N/A CALM 29.99R  
KENDALLVILLE + FAIR 70 64 81 SE5 30.00R  
 

 
 
INZ028-029-035-036-043>045-051>053-200200-  
WEST CENTRAL INDIANA  
 
CITY SKY/WX TMP DP RH WIND PRES REMARKS
 
CRAWFORDSVL + PTCLDY 66 58 75 CALM 29.98R  
LAFAYETTE CLEAR 75 61 61 CALM 29.96R  
TERRE HAUTE MOCLDY 73 66 78 CALM 29.97R  
 

 
 
INZ030>032-037>040-046>048-054>057-064-065-200200-  
CENTRAL INDIANA  
 
CITY SKY/WX TMP DP RH WIND PRES REMARKS
 
ANDERSON MOCLDY 73 60 63 CALM 30.00S  
COLUMBUS CLEAR 73 63 68 SE3 29.98R  
FISHERS *+ PTCLDY 76 65 70 SE6 29.99R  
FRANKFORT + CLEAR 68 64 88 S3 29.97R  
GREENWOOD *+ CLEAR 75 66 75 CALM 29.99R  
INDIANAPOLIS PTCLDY 77 61 57 S6 29.97R  
-EAGLE CREEK CLEAR 78 61 55 CALM 29.97R  
KOKOMO + PTCLDY 71 71 100 SE6 29.99R  
MT COMFORT *+ CLEAR 70 66 88 CALM 30.00R  
SHELBYVILLE CLEAR 74 66 76 SE6 29.98R  
ZIONSVILLE + CLEAR 69 64 86 CALM 29.99R  
 

 
 
INZ033-034-041-042-049-050-058-059-200200-  
EAST CENTRAL INDIANA  
 
CITY SKY/WX TMP DP RH WIND PRES REMARKS
 
MUNCIE PTCLDY 72 63 73 E5 29.99R  
 

 
 
INZ060-061-067>069-081>083-085>088-200200-  
SOUTHWEST INDIANA  
 
CITY SKY/WX TMP DP RH WIND PRES REMARKS
 
EVANSVILLE PTCLDY 76 66 71 CALM 29.96R  
HUNTINGBURG *+ CLEAR 75 68 78 SE3 29.97R  
WASHINGTON + PTCLDY 72 67 84 SW3 29.97R  
 

 
 
INZ062-063-066-070>080-084-089>092-200200-  
SOUTH CENTRAL AND SOUTHEAST INDIANA  
 
CITY SKY/WX TMP DP RH WIND PRES REMARKS
 
BLOOMINGTON CLEAR 72 64 76 CALM 29.98R  
MADISON *+ PTCLDY 72 70 94 CALM 30.01R  
 

 
 
 
 
CLICK HERE TO GO TO PREVIOUS BULLETINS.

The Nexlab IN Page Main Text Page